Location: Cahas Mountain Overlook
(37.0833°N, 80.1000°W)
Time: 01:49:16
(UTC-05:00)

A-11 Canister half - Pass Details

Date: 29 November 2023
Orbit: 1512 x 1687 km, 47.2° (Epoch: 01 March)

Event Time Altitude Azimuth Distance (km) Brightness Sun altitude
Exits shadow 05:16:37 29° 308° (NW) 2,678 9.8 -22.8°
Maximum altitude 05:21:29 47° 3° (N) 2,102 9.6 -21.9°
Drops below altitude 10° 05:31:13 10° 76° (ENE) 3,951 12.1 -20.0°
Sets 05:34:37 0° 82° (E) 4,940 12.9 -19.3°
